Find Starlink 30105

NORAD ID: 57433 Int'l Des: 2023-105 Owner: SPXS Country: US Constellation: starlink operational
LEOCIRCULAR

リアルタイム位置

3D地球を読み込み中...

Starlink 30105について

説明を読み込み中...

次回通過

Passes for default location (London). Set your location on the main map for personalized predictions.

高度履歴

Loading altitude history...

軌道要素

1 57433U 23105D 26125.82535204 -.00000950 00000-0 -25013-4 0 9999
2 57433 43.0084 68.1603 0001995 264.9228 95.1396 15.27564455157060
Epoch: May 5, 2026 • Age: 8 hours

現在のステータス

高度 488.1 km
速度 7.62 km/s
衛星直下点 -23.85°S, 121.76°E
打ち上げ日 Jul 24, 2023
運用期間 2.7 years
タイプ internet

技術仕様

分類 Payload
質量 730.00 kg
乾燥質量 700.00 kg
総質量 730.00 kg
長さ 0.30 m
直径 4.10 m
スパン 29.00 m
形状 Box + pan
製造者 SPXS
バスタイプ Starlink V2M
フェーズステータス In Orbit
所有者/国 SPXS/US

Most Searched